Wind_Speed
57 57 57 57 58 59 61 62 63 65 66 67 67 68 70 71 72 72 72 72 72 72 71 72 72 72 71 72 73 76 79 81 79 77 76 75 76 77 76 75 75 71
60 59 59 59 59 59 59 60 61 62 64 65 66 67 68 69 70 71 72 72 73 73 73 73 74 73 72 71 71 71 73 78 81 80 77 75 75 76 77 77 76 75
62 62 62 61 61 61 61 60 60 61 62 63 64 65 65 66 67 68 69 70 71 71 72 73 75 76 76 76 76 75 73 74 77 80 80 77 73 70 70 72 73 74
65 65 64 64 64 63 63 63 62 62 62 62 62 63 64 64 64 65 66 67 68 68 68 69 70 72 72 73 75 76 76 75 76 78 80 82 78 70 65 64 65 67
67 67 67 66 66 66 65 65 65 64 64 63 63 63 63 64 63 63 63 64 65 66 66 67 67 68 68 68 69 70 72 72 74 75 77 79 79 76 70 65 63 62
69 68 68 68 68 68 68 67 67 67 66 66 65 65 65 65 65 64 64 63 63 64 64 65 65 66 67 67 67 67 68 68 69 71 72 73 74 75 74 72 69 67
70 69 69 69 69 69 69 69 69 68 68 68 67 67 66 66 66 66 66 65 65 64 64 64 64 64 65 65 66 66 67 67 67 67 68 68 68 69 70 70 70 71
72 71 71 70 70 70 70 70 70 70 70 69 69 68 68 68 67 67 67 67 67 66 66 65 65 65 64 64 65 65 65 66 66 66 66 66 66 66 66 66 66 67
73 73 73 72 72 72 71 71 71 71 71 70 70 70 70 69 69 68 68 68 68 67 67 67 66 66 65 65 64 64 64 65 65 64 64 65 65 65 65 64 64 64
75 74 74 74 74 73 73 73 72 72 72 71 71 71 71 71 70 70 70 69 69 68 68 68 67 67 66 66 65 64 64 64 64 64 64 64 64 64 64 64 64 63
76 76 76 75 75 75 75 74 74 74 73 73 73 72 72 72 72 71 71 71 70 70 69 69 69 68 68 67 67 66 66 65 64 64 64 64 64 64 64 64 64 64
78 78 77 77 76 76 77 76 76 76 75 75 74 74 74 74 74 73 73 72 72 71 71 70 70 70 69 69 68 68 67 67 66 66 66 65 65 65 64 64 64 64
80 79 79 78 78 77 77 77 77 77 77 76 76 76 75 75 75 75 75 74 74 73 73 72 72 71 71 70 70 70 69 68 68 67 67 67 66 66 65 65 64 64
81 81 80 80 79 79 78 78 78 78 78 78 78 77 77 77 76 76 76 76 76 75 75 74 74 73 73 72 72 71 71 70 70 69 69 68 68 67 67 66 66 66
83 82 82 82 81 80 80 79 79 79 79 79 79 79 78 78 78 77 77 77 77 77 77 77 76 76 75 74 74 74 73 72 72 71 71 70 70 69 69 69 68 68
85 84 84 83 83 82 81 81 80 79 79 79 80 80 80 80 79 79 79 78 78 78 78 78 78 78 77 76 76 75 75 74 74 73 73 72 72 71 71 71 70 70
87 87 86 86 85 84 84 83 82 81 81 80 80 80 80 81 81 81 80 80 80 79 79 79 79 79 79 78 78 77 77 76 76 75 75 74 74 73 73 72 72 72
90 90 89 89 88 87 86 86 85 84 84 83 82 81 81 81 81 82 82 82 81 81 80 80 80 80 80 80 79 79 79 78 78 77 77 76 76 75 75 74 74 73
92 92 91 91 91 90 89 88 88 87 86 86 85 84 83 83 82 82 83 83 83 83 82 82 81 81 81 81 80 80 80 80 79 79 78 78 77 77 77 76 75 75
95 94 93 93 92 92 92 91 90 90 89 88 88 87 86 86 85 84 84 84 84 84 84 83 83 82 82 82 82 81 81 81 81 80 79 79 78 78 78 77 77 77
98 97 96 95 94 94 93 93 92 92 91 91 90 90 89 88 88 87 86 86 85 85 85 84 84 84 84 83 83 83 82 82 82 82 81 81 80 79 79 78 78 78
101 100 99 98 97 96 95 94 94 94 93 93 93 92 92 91 90 89 89 88 88 88 87 86 86 85 85 85 84 84 84 83 83 83 83 82 82 81 80 80 80 79
103 103 102 101 100 99 98 97 97 96 95 95 95 94 94 93 92 91 91 90 90 90 90 89 88 87 87 86 86 86 85 85 85 84 84 83 83 83 82 82 81 81
106 105 104 104 103 102 101 100 100 99 99 98 97 96 96 95 94 94 93 92 91 91 92 91 90 89 89 88 87 87 87 87 86 86 85 85 84 84 84 83 83 82
108 107 107 106 105 104 104 103 103 102 102 102 101 100 99 98 97 96 95 94 94 93 93 92 92 91 91 90 89 88 88 88 87 87 86 86 85 85 85 85 84 84
110 110 110 109 108 108 107 106 106 105 105 105 105 104 103 102 101 100 99 98 97 96 96 95 94 93 93 92 91 91 90 90 89 89 88 87 87 87 87 86 86 85
Wind_Direction
251 252 253 253 253 253 253 253 252 250 249 248 247 244 241 240 239 238 238 238 237 237 238 238 238 238 239 241 244 244 244 245 246 248 251 253 255 257 258 259 260 260
250 251 251 252 253 254 254 255 254 254 253 252 252 250 249 247 245 244 243 242 241 240 240 240 240 239 239 240 243 244 244 244 245 246 248 251 253 254 256 256 256 257
251 251 251 251 252 253 254 254 255 255 255 255 255 255 255 253 251 250 249 248 247 246 245 244 244 244 244 244 244 245 244 243 243 243 245 247 249 248 248 249 251 251
250 251 251 251 251 252 253 253 254 254 255 255 256 257 258 258 257 255 254 253 252 251 251 250 249 248 247 247 246 247 246 244 243 242 242 244 246 245 243 242 244 245
250 251 251 251 251 251 251 252 253 253 254 254 255 256 257 258 259 260 259 258 257 256 255 255 255 254 253 251 249 249 248 247 246 245 244 243 244 244 242 240 240 241
250 250 250 251 251 251 251 251 252 252 253 253 254 255 255 257 258 259 260 260 260 259 259 259 259 259 259 258 257 254 253 251 250 249 248 247 246 246 245 244 242 242
250 250 250 251 251 251 251 251 252 252 252 253 253 254 254 255 256 257 258 259 260 260 261 260 261 261 262 262 263 262 260 258 257 255 254 253 252 251 250 250 248 248
250 250 250 250 250 251 251 252 252 252 252 252 253 253 253 254 254 255 256 257 258 259 260 260 261 261 262 262 263 265 265 265 264 263 261 260 259 258 257 257 257 256
249 250 250 250 250 250 251 251 252 252 252 253 253 253 253 253 254 254 255 255 256 257 258 259 260 260 261 261 262 263 264 266 267 268 267 266 265 265 264 263 263 263
249 249 249 250 250 250 250 251 251 252 252 252 253 253 253 253 254 254 254 254 255 255 256 257 258 259 260 260 261 261 262 263 264 266 267 268 268 268 268 268 267 267
249 249 249 249 250 250 250 251 251 251 251 252 252 252 253 253 253 254 254 254 254 254 255 255 256 257 258 258 259 260 260 261 261 263 264 265 266 267 268 268 268 268
248 249 249 249 249 249 250 250 251 251 251 251 252 252 252 252 253 253 253 254 254 254 254 254 255 255 256 257 257 258 259 259 260 260 261 262 263 264 265 266 267 267
247 248 248 248 249 249 249 249 250 250 251 251 251 251 252 252 252 252 253 253 253 253 254 254 254 254 255 255 256 257 257 258 258 259 259 260 260 261 262 263 264 265
246 247 247 247 248 248 248 248 248 249 249 250 251 251 251 251 252 252 252 252 253 253 253 253 254 254 254 254 255 255 256 256 257 257 258 258 259 260 260 261 262 263
246 246 246 246 247 247 248 248 248 248 248 249 249 250 251 251 251 252 252 252 252 252 253 253 254 254 254 254 254 254 255 255 256 256 257 257 258 258 259 260 260 261
246 246 246 246 246 246 247 247 248 248 248 248 248 249 249 250 250 251 251 252 252 252 252 253 253 254 254 254 254 254 254 255 255 255 256 256 257 257 258 258 259 260
246 247 247 247 247 247 247 247 247 247 248 248 248 248 248 249 249 250 250 251 251 252 252 252 253 253 254 254 254 255 255 255 255 255 255 256 256 256 257 258 258 259
247 247 247 247 247 247 247 248 248 248 248 248 248 248 248 248 248 249 249 250 251 251 252 252 252 253 253 254 254 255 255 255 255 255 255 256 256 257 257 257 258 258
248 248 248 248 248 248 248 248 248 248 248 248 248 249 249 248 248 248 248 249 249 250 251 252 252 253 253 253 254 254 255 255 255 255 256 256 256 256 257 257 257 258
249 249 249 249 249 249 249 249 249 249 249 249 249 249 249 249 249 249 248 248 248 249 249 250 251 252 252 253 253 254 254 255 255 255 256 256 256 256 256 257 257 258
249 249 249 249 249 249 249 249 249 249 249 249 249 249 249 249 249 249 249 249 249 249 249 249 250 251 251 252 252 253 253 254 254 255 255 256 256 256 256 257 257 258
249 249 249 249 249 249 249 249 249 249 249 249 249 249 249 248 249 249 249 250 250 251 250 250 249 250 250 251 252 252 253 253 254 254 255 256 256 256 256 257 257 258
250 249 249 249 249 249 249 249 249 249 249 249 249 249 249 249 248 248 248 249 250 251 251 251 251 250 250 250 251 252 252 253 253 254 254 255 255 256 256 257 257 258
251 250 250 249 249 249 249 249 249 249 249 249 249 249 249 250 249 249 249 249 249 249 250 252 252 252 252 251 251 251 252 252 253 253 254 254 255 255 256 257 257 257
252 251 251 250 250 250 250 249 249 249 249 249 249 249 249 249 250 250 250 249 249 249 249 250 251 252 252 253 253 252 252 252 252 253 253 254 255 255 256 256 257 257
252 252 251 251 251 250 250 250 250 250 250 249 249 249 249 248 249 249 249 250 250 250 250 250 250 251 252 252 253 253 253 253 253 253 253 253 254 255 255 256 256 257
Height
5644 5645 5646 5647 5649 5650 5652 5653 5654 5656 5657 5659 5661 5663 5665 5667 5669 5671 5673 5675 5677 5679 5681 5683 5685 5686 5687 5689 5691 5694 5696 5698 5699 5700 5701 5703 5703 5703 5704 5705 5706 5707
5637 5638 5640 5641 5642 5644 5645 5647 5648 5650 5651 5652 5653 5655 5657 5659 5661 5663 5664 5666 5669 5671 5673 5675 5676 5678 5680 5681 5684 5686 5688 5690 5691 5693 5695 5696 5696 5697 5697 5697 5698 5699
5629 5631 5633 5634 5636 5637 5639 5640 5642 5643 5645 5645 5646 5648 5649 5651 5653 5655 5656 5658 5660 5662 5664 5666 5668 5670 5671 5673 5675 5677 5679 5681 5682 5684 5687 5688 5689 5690 5690 5690 5691 5691
5621 5623 5625 5627 5628 5630 5631 5633 5634 5636 5638 5639 5640 5641 5642 5644 5645 5647 5649 5650 5652 5654 5655 5657 5659 5660 5662 5664 5666 5668 5670 5672 5673 5675 5678 5680 5681 5683 5683 5683 5683 5683
5613 5615 5617 5619 5621 5622 5624 5625 5627 5628 5630 5632 5633 5635 5636 5637 5638 5639 5641 5643 5645 5646 5647 5649 5650 5651 5653 5655 5657 5658 5660 5662 5664 5666 5668 5670 5672 5674 5675 5675 5676 5676
5605 5607 5609 5611 5612 5614 5616 5617 5619 5621 5622 5624 5626 5627 5629 5630 5631 5632 5633 5635 5637 5638 5640 5641 5642 5643 5644 5645 5647 5649 5651 5653 5654 5656 5658 5660 5662 5664 5665 5666 5667 5668
5596 5598 5600 5602 5604 5606 5607 5609 5611 5613 5614 5616 5618 5619 5621 5623 5624 5625 5626 5628 5629 5631 5632 5634 5635 5636 5637 5638 5638 5640 5642 5643 5645 5647 5649 5650 5652 5654 5655 5656 5658 5659
5587 5589 5591 5593 5595 5597 5599 5601 5602 5604 5606 5608 5610 5611 5613 5615 5616 5618 5619 5620 5622 5623 5624 5626 5627 5629 5630 5631 5632 5633 5633 5634 5636 5638 5640 5641 5642 5644 5646 5647 5648 5650
5578 5580 5582 5584 5586 5588 5590 5592 5594 5596 5598 5600 5601 5603 5605 5607 5608 5610 5611 5613 5614 5615 5617 5618 5619 5621 5622 5624 5625 5626 5627 5628 5628 5629 5631 5632 5634 5635 5637 5638 5640 5641
5568 5570 5572 5575 5577 5579 5581 5583 5585 5587 5589 5591 5593 5594 5596 5598 5600 5602 5603 5605 5607 5608 5609 5611 5612 5613 5614 5616 5617 5619 5620 5621 5622 5623 5624 5625 5626 5627 5629 5630 5632 5633
5558 5560 5563 5565 5567 5569 5571 5573 5576 5578 5580 5582 5584 5585 5587 5589 5591 5593 5595 5597 5599 5600 5602 5603 5605 5606 5607 5609 5610 5611 5613 5614 5616 5617 5618 5619 5620 5621 5622 5623 5624 5625
5547 5550 5552 5555 5557 5560 5562 5564 5566 5568 5570 5572 5574 5576 5578 5580 5582 5584 5586 5588 5590 5592 5594 5595 5597 5599 5600 5601 5603 5604 5605 5607 5608 5610 5611 5613 5614 5615 5616 5617 5618 5618
5537 5539 5541 5544 5546 5549 5551 5554 5556 5558 5560 5562 5565 5567 5569 5571 5573 5575 5577 5579 5581 5583 5585 5587 5588 5590 5592 5593 5595 5596 5597 5599 5600 5602 5603 5605 5607 5608 5609 5610 5611 5612
5526 5528 5531 5533 5535 5538 5540 5543 5545 5548 5550 5552 5555 5557 5559 5561 5563 5565 5567 5570 5572 5574 5576 5577 5580 5581 5583 5585 5586 5588 5589 5591 5592 5593 5595 5596 5598 5600 5601 5603 5604 5604
5515 5517 5520 5522 5525 5527 5529 5532 5534 5537 5540 5542 5544 5547 5549 5551 5553 5555 5557 5560 5562 5564 5566 5568 5570 5572 5574 5576 5577 5579 5581 5582 5584 5585 5587 5588 5590 5591 5593 5594 5595 5596
5504 5506 5508 5511 5513 5516 5518 5521 5523 5525 5528 5531 5533 5536 5538 5541 5543 5545 5547 5549 5551 5553 5556 5558 5560 5562 5565 5566 5568 5570 5572 5573 5575 5576 5578 5580 5581 5583 5584 5585 5587 5588
5492 5495 5497 5499 5502 5504 5507 5509 5512 5514 5517 5519 5522 5525 5527 5530 5532 5534 5536 5539 5541 5543 5545 5548 5551 5553 5555 5556 5558 5560 5562 5564 5566 5567 5569 5571 5572 5574 5576 5576 5578 5579
5481 5483 5485 5488 5490 5493 5495 5498 5500 5503 5505 5508 5510 5513 5516 5518 5521 5523 5526 5528 5531 5533 5535 5537 5540 5543 5545 5546 5548 5550 5552 5554 5556 5558 5560 5562 5563 5565 5567 5568 5569 5570
5468 5471 5473 5476 5478 5481 5484 5486 5489 5491 5494 5496 5499 5501 5504 5507 5509 5511 5514 5517 5519 5522 5524 5527 5530 5532 5534 5536 5538 5539 5541 5543 5546 5548 5550 5552 5554 5556 5557 5558 5560 5561
5455 5458 5461 5464 5466 5469 5472 5474 5477 5479 5482 5484 5487 5490 5493 5495 5497 5500 5502 5505 5508 5511 5514 5517 5519 5521 5523 5525 5527 5529 5531 5533 5535 5538 5540 5542 5544 5546 5548 5549 5550 5552
5441 5444 5448 5451 5453 5456 5459 5462 5464 5467 5470 5472 5475 5479 5481 5484 5486 5488 5491 5493 5496 5499 5503 5506 5509 5510 5512 5515 5517 5518 5520 5523 5525 5528 5530 5532 5534 5536 5538 5539 5540 5542
5426 5430 5434 5437 5440 5443 5446 5449 5451 5454 5457 5459 5463 5466 5469 5472 5475 5477 5480 5482 5484 5486 5490 5495 5498 5499 5501 5504 5506 5507 5510 5512 5514 5517 5519 5522 5524 5526 5528 5529 5530 5532
5411 5416 5420 5423 5426 5430 5433 5435 5438 5441 5444 5446 5450 5454 5456 5459 5462 5466 5469 5471 5473 5475 5477 5482 5486 5488 5489 5492 5495 5496 5498 5500 5503 5506 5508 5511 5513 5515 5517 5518 5520 5522
5396 5400 5404 5408 5412 5415 5418 5421 5424 5427 5430 5433 5436 5440 5443 5446 5449 5453 5457 5459 5462 5464 5466 5469 5474 5476 5477 5480 5483 5485 5487 5489 5492 5494 5497 5500 5502 5504 5506 5507 5509 5511
5380 5384 5388 5393 5397 5400 5403 5406 5410 5413 5416 5418 5422 5426 5430 5433 5436 5439 5443 5446 5449 5452 5455 5458 5462 5465 5466 5467 5470 5473 5475 5477 5480 5483 5486 5489 5490 5492 5494 5496 5498 5500
5364 5367 5371 5376 5380 5384 5388 5391 5394 5398 5400 5403 5406 5411 5415 5419 5422 5425 5429 5433 5436 5439 5442 5446 5450 5453 5455 5456 5458 5460 5462 5465 5467 5471 5475 5478 5479 5480 5482 5484 5487 5489